User: anonymous   Login
Location: Oshawa
(43.9000°N, 78.8670°W)
Time: 02:28:06
(UTC-04:00)
Language:

Cosmos 1805 Rocket - Orbit

View from above orbital plane
View from above orbital plane
View from above satellite
View from above satellite

Ground track
Ground track

The orbit data is extracted from the following two-line orbital elements,

1 17192U 86097B   18169.35118758 +.00000071 +00000-0 +57318-5 0  9990
2 17192 082.5074 272.8239 0016275 339.5299 078.3961 14.83548181681879
Epoch (UTC): 18 June 2018 08:25:42
Eccentricity: 0.0016275
inclination: 82.5074°
perigee height: 607 km
apogee height: 629 km
right ascension of ascending node: 272.8239°
argument of perigee: 339.5299°
revolutions per day: 14.83548181
mean anomaly at epoch: 78.3961°
orbit number at epoch: 68187

The dashed part of the orbit path shows where the satellite is in the earth's shadow,  

DLR